This is the latest recevied weather packets stored in our database for station/object N8WEL. If no packets are shown the sender has not sent any weather packets the latest 10 day(s).
| Time | Temp. | Humidity | Pressure | Rain* | Wind** | Luminosity | Snow |
|---|---|---|---|---|---|---|---|
| 1777746740 | 8.89° C | 44% | 1016 hPa | 0 mm | - | - | - |
| 1777746250 | 9.44° C | 45% | 1016.1 hPa | 0 mm | - | - | - |
| 1777745792 | 9.44° C | 43% | 1016.1 hPa | 0 mm | - | - | - |
| 1777745577 | 10° C | 41% | 1016.2 hPa | 0 mm | - | - | - |
| 1777745192 | 10° C | 43% | 1016.1 hPa | 0 mm | - | - | - |
| 1777744891 | 9.44° C | 42% | 1016.1 hPa | 0 mm | - | - | - |
| 1777744220 | 9.44° C | 45% | 1016.3 hPa | 0 mm | - | - | - |
| 1777743916 | 9.44° C | 44% | 1016.3 hPa | 0 mm | - | - | - |
| 1777743616 | 8.89° C | 42% | 1016.2 hPa | 0 mm | - | - | - |
| 1777743316 | 8.89° C | 43% | 1016.3 hPa | 0 mm | - | - | - |
| 1777743016 | 8.89° C | 44% | 1016.3 hPa | 0 mm | - | - | - |
| 1777742755 | 9.44° C | 44% | 1016.3 hPa | 0 mm | - | - | - |
| 1777742431 | 8.89° C | 43% | 1016.4 hPa | 0 mm | - | - | - |
| 1777742334 | 8.89° C | 44% | 1016.5 hPa | 0 mm | - | - | - |
| 1777741870 | 8.89° C | 44% | 1016.4 hPa | 0 mm | - | - | - |
| 1777741518 | 8.89° C | 45% | 1016.5 hPa | 0 mm | - | - | - |
| 1777741377 | 8.33° C | 46% | 1016.6 hPa | 0 mm | - | - | - |
| 1777740917 | 8.33° C | 45% | 1016.5 hPa | 0 mm | - | - | - |
| 1777740896 | 8.89° C | 42% | 1016.5 hPa | 0 mm | - | - | - |
| 1777740352 | 9.44° C | 43% | 1016.5 hPa | 0 mm | - | - | - |
| 1777740059 | 8.89° C | 44% | 1016.6 hPa | 0 mm | - | - | - |
| 1777739728 | 8.89° C | 44% | 1016.6 hPa | 0 mm | - | - | - |
| 1777739551 | 8.33° C | 46% | 1016.7 hPa | 0 mm | - | - | - |
| 1777739160 | 7.78° C | 44% | 1016.8 hPa | 0 mm | - | - | - |
| 1777738562 | 8.33° C | 46% | 1016.7 hPa | 0 mm | - | - | - |
* Rain latest hour (hover to see other rain measurements)
** Current wind speed in m/s (hover to see current wind gust speed)